Location: Novo Ouro Preto
(19.8840°S, 43.9844°W)
Time: 09:42:27
(UTC+00:00)

Cosmos 1607 - Pass Details

Date: 18 September 2020
Orbit: 910 x 993 km, 65.0° (Epoch: 22 October)

Event Time Altitude Azimuth Distance (km) Brightness Sun altitude
Rises 21:36:33 0° 336° (NNW) 3,668 7.3 -11.5°
Reaches altitude 10° 21:39:07 10° 336° (NNW) 2,717 6.6 -12.1°
Maximum altitude 21:45:30 87° 246° (WSW) 972 4.0 -13.6°
Drops below altitude 10° 21:51:49 10° 157° (SSE) 2,684 6.1 -15.1°
Sets 21:54:20 0° 156° (SSE) 3,622 6.8 -15.6°
